Subic Bay, Philippines

2:57 AM +08 on June 23, 2018 (GMT +0800)
Subic Bay International

Weather History for RPLB - June, 2008

Change the Weather History Date:

Sunday, June 22, 2008

  Actual Average Record
Temperature  
Mean Temperature 78 °F -  
Max Temperature 81 °F 85 °F 91 °F (2006)
Min Temperature 76 °F 74 °F 37 °F (2000)
Cooling Degree Days 14    
Growing Degree Days 28 (Base 50)    
Moisture  
Dew Point 74 °F    
Average Humidity 85    
Maximum Humidity 94    
Minimum Humidity 72    
Precipitation  
Precipitation 5.51 in - - ()
Sea Level Pressure  
Sea Level Pressure 29.49 in    
Wind  
Wind Speed 15 mph ()    
Max Wind Speed 49 mph    
Max Gust Speed 59 mph    
Visibility 3.9 miles    
Events Rain    
Averages and records for this station are not official NWS values.
T = Trace of Precipitation, MM = Missing Value Source: Averaged Metar Reports

Daily Weather History Graph

Daily Weather History Graph

Search for Another Location

Airport or City:

Astronomy

Jun. 22, 2008 Rise Set
Actual Time 5:30 AM +08 6:31 PM +08
Civil Twilight 5:07 AM +08 6:54 PM +08
Nautical Twilight 4:39 AM +08 7:22 PM +08
Astronomical Twilight 4:10 AM +08 7:51 PM +08
Moon 9:20 PM +08 8:15 AM +08
Length of Visible Light 13h 47m
Length of Day
13h 00m
Waning Gibbous, 89% of the Moon is Illuminated
Jun 22
Waning Gibbous
Jun 26
Last Quarter
Jul 3
New
Jul 10
First Quarter
Jul 18
Full

Hourly Weather History & Observations

Time (+08) Temp. Heat Index Dew Point Humidity Pressure Visibility Wind Dir Wind Speed Gust Speed Precip Events Conditions
12:00 AM 76 °F - 73 °F 87% 29.59 in 6 mi East 6.7 mph - -   Haze
12:00 AM 77.0 °F - 73.4 °F 89% 29.56 in 6.2 mi East 6.9 mph - N/A   Overcast
1:00 AM 77 °F - 71 °F 77% 29.54 in 6 mi ENE 2.2 mph - -   Haze
1:00 AM 77.0 °F - 71.6 °F 83% 29.53 in 6.2 mi East 2.3 mph - N/A   Mostly Cloudy
2:00 AM 77 °F - 72 °F 79% 29.52 in 6 mi East 4.5 mph - -   Haze
2:00 AM - - - N/A% - - North - - N/A   Unknown
3:00 AM 79 °F - 72 °F 72% 29.51 in 7 mi NNE 4.5 mph - -   Haze
3:00 AM - - - N/A% - - North - - N/A   Unknown
5:00 AM 77 °F - 72 °F 79% 29.48 in 6 mi ENE 8.9 mph - - Rain Light Rain Showers
5:00 AM 77.0 °F - 71.6 °F 83% 29.47 in 5.6 mi NNE 11.5 mph 23.0 mph N/A Rain Rain Showers
6:00 AM 78.8 °F - 71.6 °F 78% 29.44 in 3.1 mi NNE 4.6 mph - N/A   Overcast
7:00 AM 82.4 °F 88.2 °F 73.4 °F 74% 29.44 in 5.6 mi NNW 16.1 mph - N/A   Overcast
8:00 AM 84.2 °F 94.1 °F 77.0 °F 79% 29.44 in 5.0 mi NW 10.4 mph - N/A   Overcast
9:00 AM 78.8 °F - 73.4 °F 83% 29.47 in 3.7 mi West 13.8 mph - N/A Rain Light Rain
10:00 AM 78 °F - 72 °F 77% 29.48 in 3 mi NW 4.5 mph - - Rain Light Rain
10:00 AM 78.8 °F - 71.6 °F 78% 29.47 in 3.1 mi NW 19.6 mph - N/A Rain Light Rain
11:00 AM 78 °F - 74 °F 83% 29.49 in - SSW 4.5 mph - - Rain Light Rain
11:00 AM 78.8 °F - 73.4 °F 83% 29.47 in 3.1 mi SSW 9.2 mph - N/A Rain Light Rain
11:32 AM 78.8 °F - 75.2 °F 89% 29.47 in 3.1 mi SW 23.0 mph - N/A Rain Heavy Rain
12:00 PM 78 °F - 76 °F 90% 29.48 in - WSW 26.8 mph - - Rain Rain
12:00 PM 78.8 °F - 75.2 °F 89% 29.47 in 1.9 mi WSW 23.0 mph - N/A Rain Heavy Rain
12:10 PM 77.0 °F - 75.2 °F 94% 29.44 in 1.2 mi SW 25.3 mph 44.9 mph N/A Rain Heavy Rain
1:00 PM 77 °F - 75 °F 92% 29.43 in - SW 49.2 mph - - Rain Heavy Rain
1:00 PM 78.8 °F - 77.0 °F 94% 29.42 in 0.6 mi SW 44.9 mph 58.7 mph N/A   Overcast
2:00 PM 78 °F - 76 °F 92% 29.45 in - WSW 38.0 mph - - Rain Heavy Rain
2:00 PM 78.8 °F - 77.0 °F 94% 29.44 in 0.6 mi WSW 40.3 mph - N/A Rain Heavy Rain
3:00 PM 77 °F - 76 °F 94% 29.48 in - SW 33.6 mph - - Rain Light Rain
3:00 PM 77.0 °F - 75.2 °F 94% 29.47 in 1.9 mi SW 34.5 mph - N/A Rain Light Rain
4:00 PM 80 °F - 76 °F 84% 29.24 in - SW 31.3 mph - - Rain Light Rain
4:00 PM 80.6 °F 86.2 °F 75.2 °F 84% 29.47 in 1.9 mi SW 34.5 mph - N/A   Overcast
5:00 PM 78 °F - 75 °F 89% 29.51 in - SW 26.8 mph - - Rain Light Rain
5:00 PM 78.8 °F - 75.2 °F 89% 29.50 in 1.9 mi SW 27.6 mph - N/A   Overcast
6:00 PM 78 °F - 75 °F 88% 29.52 in - SW 26.8 mph - - Rain Light Rain
6:00 PM 78.8 °F - 77.0 °F 94% 29.50 in 2.5 mi SW 27.6 mph - N/A   Overcast
7:00 PM 79 °F - 75 °F 85% 29.54 in 4 mi SW 26.8 mph - - Rain Light Rain
7:00 PM 78.8 °F - 75.2 °F 89% 29.53 in 3.7 mi SW 27.6 mph - N/A   Overcast
8:00 PM 80 °F - 74 °F 79% 29.56 in 4 mi SW 26.8 mph - - Rain Light Rain
8:00 PM 80.6 °F 86.2 °F 75.2 °F 84% 29.53 in 3.7 mi SW 27.6 mph - N/A   Overcast
9:00 PM 80 °F - 75 °F 82% 29.58 in 4 mi SW 24.6 mph - - Rain Light Rain
9:00 PM 80.6 °F 86.2 °F 75.2 °F 84% 29.56 in 3.7 mi SW 25.3 mph - N/A Rain Rain
10:00 PM 80 °F - 76 °F 82%  in 4 mi SW 22.4 mph - - Rain Light Rain
10:00 PM 78.8 °F - 75.2 °F 89% 29.59 in 3.7 mi SW 23.0 mph - N/A   Overcast
11:00 PM 79 °F - 74 °F 79% 29.62 in 5 mi SSW 13.4 mph - - Rain Light Rain
11:00 PM 78.8 °F - 73.4 °F 83% 29.59 in 5.0 mi SSW 15.0 mph - N/A   Overcast